Weather observations for the past three days for
Chillicothe Ross County Airport
Metric (Imperial)
Date Time (edt) Wind (kph) Vis. (km) Weather Sky Cond. Temperature (ºC) Relative Humidity Wind Chill (°C) Heat Index (°C) Pressure Precipitation (cm)
Air Dwpt 6 hour altimeter (cm) sea level (mb) 1 hr 3 hr 6 hr
Max. Min.
07 17:32 NW 20 16.09 Fair CLR 15 -3 29% 76.1 0.0
07 17:15 NW 24 16.09 Partly Cloudy SCT070 15 -3 29% 76.07 0.0
07 16:56 NW 15 16.09 Fair CLR 15 -3 29% 76.07 0.0
07 16:35 NW 24 16.09 Fair CLR 15 -2 31% 76.05 0.0
07 16:17 N 26 16.09 Partly Cloudy SCT065 15 -2 31% 76.05 0.0
07 15:58 NW 24 16.09 Partly Cloudy SCT065 15 -3 29% 76.07 0.0
07 15:39 W 19 16.09 Partly Cloudy SCT065 16 -2 29% 76.07 0.0
07 15:22 NW 17 16.09 Partly Cloudy SCT065 16 -2 29% 76.07 0.0
07 14:57 NW 19 16.09 Fair CLR 15 -2 31% 76.07 0.0
07 14:39 NW 19 16.09 Fair CLR 15 -3 29% 76.07 0.0
07 14:19 NW 20 16.09 Fair CLR 15 -3 29% 76.1 0.0
07 13:55 NW 24 16.09 Fair CLR 14 -2 33% 76.1 0.0
07 13:36 NW 17 16.09 Fair CLR 14 -3 31% 76.12 0.0
07 13:15 N 20 16.09 Fair CLR 14 -3 31% 76.15 0.0
07 12:59 W 22 16.09 Fair CLR 14 -1 36% 76.15 0.0
07 12:39 W 24 16.09 Fair CLR 14 -2 33% 76.15 0.0
07 12:18 W 19 16.09 Fair CLR 14 -2 33% 76.15 0.0
07 11:58 W 26 16.09 Fair CLR 13 -1 38% 76.17 0.0
07 11:38 NW 19 16.09 Fair CLR 13 -1 38% 76.15 0.0
07 11:18 NW 22 16.09 Fair CLR 13 0 41% 76.15 0.0
07 10:57 W 15 16.09 Fair CLR 13 0 41% 76.15 0.0
07 10:40 NW 19 16.09 Fair CLR 13 1 44% 76.15 0.0
07 10:22 W 19 16.09 Fair CLR 12 0 44% 76.15 0.0
07 10:03 W 9 16.09 Fair CLR 11 1 50% 76.15 0.0
07 09:36 NW 11 16.09 Fair CLR 11 2 54% 76.17 0.0
07 09:18 W 13 16.09 Fair CLR 10 1 54% 8 76.17 0.0
07 08:55 NW 13 16.09 Fair CLR 10 2 58% 8 76.2 0.0
07 08:36 NW 13 16.09 Fair CLR 9 3 66% 7 76.2 0.0
07 08:14 NW 11 16.09 Fair CLR 8 3 71% 6 76.2 0.0
07 07:54 NW 13 16.09 Fair CLR 8 4 76% 6 76.2 0.0
07 07:38 NW 9 16.09 Fair CLR 7 6 93% 5 76.17 0.0
07 07:11 Calm 16.09 Fair CLR 5 5 100% 76.17 0.0
07 06:49 Calm 16.09 Fair CLR 4 4 100% 76.15 0.0
07 06:30 Calm 16.09 Fair CLR 3 3 100% 76.15 0.0
07 06:09 Calm 16.09 Fair CLR 4 4 100% 76.15 0.0
07 05:49 Calm 16.09 Fair CLR 3 3 100% 76.15 0.0
07 05:29 Calm 16.09 Partly Cloudy SCT010 4 4 100% 76.12 0.0
07 05:11 Calm 16.09 Partly Cloudy SCT050 4 4 100% 76.12 0.0
07 04:51 Calm 16.09 Partly Cloudy SCT050 4 4 100% 76.12 0.0
07 04:31 Calm 16.09 Mostly Cloudy BKN050 4 4 100% 76.12 0.0
07 04:12 Calm 16.09 Mostly Cloudy BKN050 4 4 100% 76.12 0.0
07 03:51 SW 6 16.09 Partly Cloudy SCT050 5 5 100% 76.12 0.0
07 03:31 Calm 16.09 Partly Cloudy SCT050 SCT065 4 4 100% 76.12 0.0
07 03:13 W 6 16.09 Partly Cloudy SCT060 4 4 100% 76.12 0.0
07 02:35 SW 6 16.09 Fair CLR 5 5 100% 76.12 0.0
07 02:16 W 6 16.09 Fair CLR 5 5 100% 76.12 0.0
07 01:57 W 6 16.09 Fair CLR 5 5 100% 0 0.0
07 01:34 W 6 16.09 Fair CLR 5 5 100% 76.15 0.0
07 01:13 W 6 16.09 Fair CLR 5 5 100% 76.15 0.0
07 00:54 W 6 16.09 Fair CLR 6 5 93% 76.17 0.0
07 00:35 Calm 16.09 Fair CLR 6 6 100% 76.15 0.0
07 00:15 SW 6 16.09 Fair CLR 6 6 100% 76.17 0.0
06 23:54 Calm 16.09 Fair CLR 7 5 87% 76.15 0.0
06 23:34 SW 6 16.09 Fair CLR 7 5 87% 76.15 0.0
06 23:19 Calm 16.09 Fair CLR 7 5 87% 76.15 0.0
06 22:53 Calm 16.09 Partly Cloudy SCT090 9 3 66% 76.17 0.0
06 22:33 NW 6 16.09 Fair CLR 10 2 58% 76.17 0.0
06 22:14 Calm 16.09 Partly Cloudy SCT075 10 3 62% 76.15 0.0
06 21:55 N 6 16.09 Mostly Cloudy BKN075 10 3 62% 76.15 0.0
06 21:22 N 6 16.09 Overcast OVC075 11 4 62% 0 0.0
06 20:59 N 7 16.09 Overcast OVC075 12 3 54% 0 0.0
06 20:36 N 9 16.09 Overcast OVC075 12 2 51% 0 0.0
06 20:16 N 7 16.09 Overcast OVC075 12 3 54% 76.07 0.0
06 20:00 N 13 16.09 Overcast OVC075 12 2 51% 76.02 0.0
06 19:36 N 13 16.09 Partly Cloudy SCT075 13 2 47% 76.02 0.0
06 19:19 N 15 16.09 Partly Cloudy SCT075 13 2 47% 76.02 0.0
06 18:51 NW 15 16.09 Overcast OVC075 14 2 44% 76.02 0.0
06 18:31 N 19 16.09 Overcast SCT050 OVC075 14 3 48% 76.05 0.0
06 18:12 N 19 16.09 Overcast BKN050 OVC075 14 3 48% 76.02 0.0
06 17:54 N 11 16.09 Overcast OVC050 14 3 48% 0 0.0
06 17:31 N 13 16.09 Overcast BKN050 OVC075 15 3 45% 76 0.0
06 17:11 NW 11 16.09 Overcast BKN050 OVC075 15 3 45% 75.97 0.0
06 16:51 N 15 16.09 Overcast BKN050 OVC075 15 2 42% 75.97 0.0
06 16:32 N 17 16.09 Overcast BKN050 OVC075 16 3 42% 75.97 0.0
06 16:10 N 11 16.09 Overcast SCT050 OVC075 16 2 39% 75.97 0.0
06 15:53 N 11 16.09 Overcast OVC075 16 3 42% 75.97 0.0
06 15:33 NW 13 16.09 Mostly Cloudy SCT049 BKN075 BKN110 16 3 42% 75.97 0.0
06 15:12 N 11 16.09 Partly Cloudy SCT075 16 3 42% 75.97 0.0
06 14:51 N 13 16.09 Fair CLR 16 2 39% 75.95 0.0
06 14:32 N 17 16.09 Partly Cloudy SCT080 15 3 45% 75.97 0.0
06 14:11 N 19 16.09 Partly Cloudy SCT080 15 3 45% 75.97 0.0
06 13:52 N 19 16.09 Mostly Cloudy BKN090 15 4 48% 75.97 0.0
06 13:31 N 17 16.09 Mostly Cloudy BKN090 15 3 45% 75.97 0.0
06 13:12 N 13 16.09 Partly Cloudy SCT090 15 5 51% 76 0.0
06 12:51 NW 17 16.09 Partly Cloudy SCT090 14 5 55% 76 0.0
06 12:31 N 19 16.09 Mostly Cloudy BKN090 13 5 59% 0 0.0
06 12:14 N 17 16.09 NULL NULL 13 6 63% 76 0.0
06 11:55 N 17 16.09 Partly Cloudy SCT120 13 6 63% 75.97 0.0
06 11:14 NW 9 16.09 Mostly Cloudy BKN021 BKN047 12 7 72% 75.97 0.0
06 10:54 N 15 16.09 Overcast SCT016 BKN022 OVC045 11 7 77% 75.92 0.0
06 10:33 N 19 16.09 Overcast SCT016 BKN022 OVC039 11 8 82% 75.92 0.0
06 10:18 N 13 16.09 Overcast BKN014 BKN019 OVC037 11 9 88% 75.92 0.0
06 10:00 N 13 16.09 NULL NULL 10 9 94% 8 75.9 0.0
06 09:40 N 13 16.09 Overcast BKN012 BKN016 OVC031 10 10 100% 8 75.9 0.0
06 08:51 N 13 16.09 Overcast OVC009 9 9 100% 7 75.84 0.0
06 08:30 N 11 8.05 Overcast BKN004 BKN009 OVC012 9 9 100% 8 75.82 0.0
06 08:10 N 13 6.44 Overcast BKN004 OVC009 8 8 100% 6 75.82 0.0
06 07:54 N 19 4.02 Overcast BKN004 OVC009 8 8 100% 5 75.79 0.0
06 07:34 N 17 4.02 Overcast BKN006 OVC010 8 8 100% 6 75.74 0.0
06 07:15 N 15 4.83 Overcast SCT006 OVC011 8 8 100% 6 75.72 0.0
06 06:53 N 9 16.09 Overcast OVC011 8 8 100% 7 75.69 0.0
06 06:36 N 13 16.09 Overcast OVC011 8 8 100% 6 75.67 0.0
06 06:15 NW 11 16.09 Overcast OVC009 8 8 100% 6 75.69 0.0
06 05:55 N 15 16.09 Overcast OVC009 8 8 100% 6 75.64 0.0
06 05:34 N 17 16.09 Overcast OVC009 8 8 100% 6 75.64 0.0
06 05:13 N 15 16.09 Overcast OVC007 9 9 100% 7 75.62 0.0
06 04:52 N 11 16.09 Overcast OVC007 9 9 100% 8 75.59 0.0
06 04:31 N 20 11.27 Overcast OVC007 9 9 100% 6 75.57 0.0
06 03:59 N 19 16.09 Overcast BKN005 OVC012 9 9 100% 7 75.57 0.0
06 03:34 N 19 11.27 Overcast BKN005 OVC010 10 10 100% 8 75.54 0.0
06 03:14 N 19 8.05 Overcast SCT005 OVC010 11 11 100% 75.51 0.0
06 02:52 Calm 8.05 Overcast SCT006 BKN011 OVC016 14 14 100% 75.51 0.0
06 02:34 Calm 8.05 Overcast SCT012 BKN016 OVC022 14 14 100% 75.51 0.0
06 02:13 Calm 4.83 Overcast SCT017 BKN222 OVC033 14 14 100% 75.51 0.0
06 01:57 S 6 16.09 Overcast SCT016 SCT025 OVC030 14 14 100% 75.51 0.0
06 01:36 Calm 3.22 NULL NULL 14 14 100% 75.54 0.0
06 01:16 Calm 6.44 Overcast SCT030 BKN036 OVC050 14 14 100% 75.57 0.0
06 00:55 Calm 6.44 Overcast SCT048 BKN055 OVC075 14 14 100% 75.57 0.0
06 00:21 Calm 11.27 Overcast SCT048 BKN050 OVC010 14 14 100% 0 0.0
05 23:57 E 6 11.27 Overcast SCT048 BKN080 OVC090 14 14 100% 0 0.0
05 23:40 E 6 8.05 Overcast SCT060 OVC090 14 14 100% 0 0.0
05 23:18 Calm 8.05 Overcast SCT031 BKN070 OVC090 14 14 100% 0 0.0
05 22:45 Calm 8.05 Overcast SCT030 BKN070 OVC090 14 14 100% 75.69 0.0
05 22:13 W 6 6.44 Overcast SCT022 SCT030 OVC055 15 14 94% 75.67 0.0
05 21:56 W 7 16.09 Overcast BKN065 OVC080 15 14 94% 75.64 0.0
05 21:32 SW 7 16.09 Overcast BKN070 BKN075 OVC090 15 13 88% 75.62 0.0
05 21:15 S 7 16.09 Overcast BKN070 OVC090 16 13 83% 75.59 0.0
05 20:54 S 9 16.09 NULL NULL 16 13 83% 75.62 0.0
05 20:34 S 6 16.09 Overcast SCT055 OVC075 16 13 83% 0 0.0
05 20:02 SW 7 16.09 Overcast SCT070 BKN075 OVC095 17 13 77% 75.62 0.0
05 19:34 SW 11 16.09 Overcast BKN095 OVC120 16 14 88% 75.67 0.0
05 19:18 Calm 16.09 Overcast BKN085 OVC010 16 14 88% 75.67 0.0
05 18:57 SW 9 16.09 Overcast OVC085 17 14 83% 75.67 0.0
05 18:36 SW 17 11.27 Overcast SCT025 BKN050 OVC085 17 13 77% 75.69 0.0
05 18:14 SW 13 16.09 Overcast BKN049 BKN060 OVC075 18 12 68% 75.69 0.0
05 17:55 S 28 16.09 Mostly Cloudy SCT048 SCT050 BKN070 20 10 53% 75.67 0.0
05 17:34 S 17 16.09 Mostly Cloudy SCT060 SCT080 BKN110 22 9 44% 75.64 0.0
05 17:16 S 17 16.09 Mostly Cloudy SCT060 BKN070 BKN090 22 9 44% 75.64 0.0
05 16:54 SW 30 16.09 Mostly Cloudy SCT050 BKN070 BKN080 22 9 44% 75.64 0.0
05 16:38 S 24 16.09 Partly Cloudy SCT050 SCT070 22 9 44% 75.64 0.0
05 16:13 SW 20 16.09 Partly Cloudy SCT050 22 9 44% 75.64 0.0
05 15:54 S 26 16.09 Partly Cloudy SCT050 22 9 44% 75.64 0.0
05 15:33 SW 22 16.09 Fair CLR 22 9 44% 75.67 0.0
05 15:15 SW 30 16.09 Fair CLR 22 9 44% 75.69 0.0
05 14:54 SW 24 16.09 Fair CLR 22 9 44% 75.72 0.0
05 14:38 SW 33 16.09 Fair and Breezy CLR 22 9 44% 75.72 0.0
05 13:59 S 22 16.09 Overcast BKN060 OVC080 22 9 44% 75.74 0.0
05 13:39 SW 24 16.09 Mostly Cloudy SCT060 BKN080 22 9 44% 0 0.0
05 13:19 S 22 16.09 Overcast BKN060 BKN070 OVC080 22 9 44% 75.74 0.0
05 12:45 SW 24 16.09 Mostly Cloudy BKN060 0 0 0% 75.77 0.0
05 12:27 S 22 16.09 Partly Cloudy SCT070 0 0 0% 75.77 0.0
05 11:49 SW 30 16.09 Fair CLR 21 9 46% 75.74 0.0
05 11:14 S 19 16.09 Partly Cloudy SCT120 19 9 52% 75.74 0.0
05 10:13 S 15 16.09 Partly Cloudy SCT120 18 9 56% 75.69 0.0
05 09:57 S 20 16.09 Partly Cloudy SCT120 18 9 56% 75.69 0.0
05 09:40 S 17 16.09 Fair CLR 18 9 56% 75.72 0.0
05 09:14 S 20 16.09 Fair CLR 18 9 56% 75.72 0.0
05 08:53 S 15 16.09 Partly Cloudy SCT120 18 8 52% 75.72 0.0
05 08:33 SW 20 16.09 Mostly Cloudy BKN120 17 8 56% 75.69 0.0
05 08:14 S 17 16.09 Partly Cloudy SCT120 18 8 52% 75.69 0.0
05 07:52 SW 22 16.09 Fair CLR 18 8 52% 75.69 0.0
05 07:33 SW 19 16.09 Fair CLR 18 8 52% 75.69 0.0
05 07:13 SW 19 16.09 Fair CLR 18 8 52% 75.67 0.0
05 06:52 SW 28 16.09 Partly Cloudy SCT080 18 8 52% 75.67 0.0
05 06:32 SW 24 16.09 Fair CLR 18 7 49% 75.64 0.0
05 06:15 SW 17 16.09 Partly Cloudy SCT070 18 8 52% 75.64 0.0
05 05:59 S 17 16.09 Mostly Cloudy BKN070 BKN010 18 8 52% 75.64 0.0
05 05:29 S 19 16.09 Mostly Cloudy BKN070 18 7 49% 75.64 0.0
05 05:11 S 13 16.09 Mostly Cloudy BKN070 18 7 49% 75.64 0.0
05 04:51 S 17 16.09 Partly Cloudy SCT070 SCT120 19 7 46% 75.64 0.0
05 04:31 S 15 16.09 Overcast OVC070 19 7 46% 75.62 0.0
05 04:11 SW 19 16.09 Overcast SCT070 OVC010 19 7 46% 75.62 0.0
05 03:51 SW 26 16.09 Mostly Cloudy BKN110 19 7 46% 75.59 0.0
05 03:30 SW 26 16.09 Partly Cloudy SCT120 19 7 46% 75.57 0.0
05 03:13 SW 31 16.09 Partly Cloudy SCT110 19 7 46% 75.57 0.0
05 02:53 SW 20 16.09 Fair CLR 19 7 46% 75.57 0.0
05 02:37 SW 22 16.09 Partly Cloudy SCT010 19 8 49% 75.57 0.0
05 02:15 S 19 16.09 Partly Cloudy SCT110 19 8 49% 75.54 0.0
05 01:55 S 17 16.09 Partly Cloudy SCT110 19 8 49% 75.54 0.0
05 01:38 S 15 16.09 Fair CLR 19 8 49% 75.57 0.0
05 01:22 S 15 16.09 Fair CLR 19 8 49% 75.59 0.0
05 00:58 S 19 16.09 Fair CLR 19 8 49% 75.59 0.0
05 00:39 S 15 16.09 Fair CLR 19 8 49% 75.62 0.0
04 23:56 S 7 16.09 Partly Cloudy SCT120 19 9 52% 75.59 0.0
04 23:36 S 7 16.09 Partly Cloudy SCT120 19 9 52% 75.59 0.0
04 23:17 S 7 16.09 Fair CLR 19 9 52% 75.59 0.0
04 22:59 S 7 16.09 Fair CLR 19 8 49% 75.59 0.0
04 22:37 S 7 16.09 Fair CLR 19 8 49% 75.57 0.0
04 22:22 S 7 16.09 Fair CLR 19 8 49% 75.57 0.0
04 21:51 S 7 16.09 Fair CLR 19 8 49% 75.57 0.0
04 21:32 S 7 16.09 Fair CLR 20 8 46% 75.54 0.0
04 21:13 S 9 16.09 Fair CLR 20 8 46% 75.54 0.0
04 20:38 S 6 16.09 Fair CLR 20 9 49% 75.51 0.0
04 20:03 S 7 16.09 Fair CLR 0 0 0% 0 0.0
04 19:30 S 7 16.09 Fair CLR 22 9 44% 75.54 0.0
04 19:10 S 11 16.09 Fair CLR 22 9 44% 75.54 0.0
04 18:49 S 9 16.09 Fair CLR 23 8 38% 75.57 0.0
04 18:30 S 11 16.09 Fair CLR 0 0 0% 75.57 0.0
04 18:09 SW 20 16.09 Fair CLR 23 9 41% 75.59 0.0
Date Time (edt) Wind (kph) Vis. (km) Weather Sky Cond. Air Dwpt Max. Min. Relative Humidity Wind Chill (°C) Heat Index (°C) altimeter (cm) sea level (mb) 1 hr 3 hr 6 hr
6 hour
Temperature (ºC) Pressure Precipitation (cm)